Regional Weather Roundup
Issued by NWS Green Bay, WI

Home | Current Version | Previous Version | Text Only | Print | Product List | Glossary On
Versions: 1 2 3 4 5 6 7 8 9 10 11 12 13 14 15 16 17 18 19 20 21 22 23 24 25 26 27 28 29 30 31 32 33 34 35 36 37 38 39 40 41 42 43 44 45 46 47 48 49 50
000
ASUS43 KGRB 250700
RWRGRB

NORTH-CENTRAL AND NORTHEAST WISCONSIN REGIONAL WEATHER ROUNDUP
NATIONAL WEATHER SERVICE GREEN BAY WI
200 AM CDT THU MAY 25 2017

WIZ005-009-010>012-018-019-250800-
NORTH CENTRAL WISCONSIN

CITY           SKY/WX    TMP DP  RH WIND       PRES   REMARKS
IRONWOOD       MOCLDY    40  39  97 CALM      29.75S
MANITOWISH WTR NOT AVBL
ARBOR VITAE    NOT AVBL
EAGLE RIVER    NOT AVBL
LAND O LAKES   NOT AVBL
RHINELANDER    PTCLDY    48  46  93 CALM      29.73S
PHILLIPS       NOT AVBL
ANTIGO         NOT AVBL
TOMAHAWK       NOT AVBL
MERRILL        NOT AVBL
$$

WIZ013-073-250800-
NORTHEAST WISCONSIN

CITY           SKY/WX    TMP DP  RH WIND       PRES   REMARKS
IRON MOUNTAIN  PTCLDY    48  43  82 VRB3      29.70F
MARINETTE      CLOUDY    51  48  89 NE7       29.68F
$$

WIZ017-030-035>037-045-250800-
CENTRAL WISCONSIN

CITY           SKY/WX    TMP DP  RH WIND       PRES   REMARKS
MEDFORD        NOT AVBL
WAUSAU         CLOUDY    51  48  89 N6        29.69F
MOSINEE        NOT AVBL
MARSHFIELD     MOCLDY    47  45  93 N3        29.69F
WISC RAPIDS    MOCLDY    52  48  86 NE7       29.70F
STEVENS POINT  NOT AVBL
WAUPACA        NOT AVBL
SHAWANO        NOT AVBL
CLINTONVILLE   NOT AVBL
WAUTOMA        CLOUDY    53  50  89 N6        29.68S
$$

WIZ038-039-048-051-250800-
FOX VALLEY

CITY           SKY/WX    TMP DP  RH WIND       PRES   REMARKS
NWS GREEN BAY  MOCLDY    49  49 100 N6        29.66F
APPLETON       NOT AVBL
OSHKOSH        CLOUDY    53  49  86 NE13      29.65F
FOND DU LAC    CLOUDY    54  49  83 N12       29.64F
$$

WIZ022-050-052-250800-
EAST CENTRAL WISCONSIN

CITY           SKY/WX    TMP DP  RH WIND       PRES   REMARKS
EPHRAIM        NOT AVBL
WASHINGTON ISL NOT AVBL
STURGEON BAY   MOCLDY    49  47  93 N9        29.67F
MANITOWOC      NOT AVBL
SHEBOYGAN      PTCLDY    51  50  96 N10       29.63S
$$

LMZ563-521-522-541>543-250800-
LAKESHORE

STATION/POSITION TIME  TEMP    WIND        PRES    VSBY  WAVE
                       AIR SEA DIR/SP/G                  HT/PER
                 (UTC) (F)     (DEG/KT/KT) (MB)    (MI)  (FT/S)
SHEBOYGAN LKSHOR 0600   50     360/ 18/ 20 1003.2F
KEWAUNEE LKSHORE 0630   52      10/ 10/ 16 1003.9S
NORTHPORT PIER   0640   49     300/  8/  9 1005.1F
N MID LAKE BUOY  0550   45 40   10/ 12/ 14 1005.8F         1/ 3
SISTER BAY LKSHO 0551   51      20/  9/ 14   N/A
CHAMBERS ISLAND  0640   49     350/ 12/ 14 1004.7F
MENOMINEE LKSHOR 0624          350/ 10/ 12 1004.3
$$




USA.gov is the U.S. government's official web portal to all federal, state and local government web resources and services.